Miscellaneous Local Product
Issued by NWS North Platte, NE

Home | Current Version | Previous Version | Graphics & Text | Print | Product List | Glossary On
Versions: 1 2 3 4 5 6 7 8 9 10 11 12 13 14 15 16 17 18 19 20 21 22 23 24 25 26 27 28 29 30 31 32 33 34 35 36 37 38 39 40 41 42 43 44 45 46 47 48 49 50
000
AXUS43 KLBF 211510
MISLBF


WESTERN AND NORTH CENTRAL NEBRASKA HOURLY WEATHER ROUNDUP
NATIONAL WEATHER SERVICE NORTH PLATTE NE
1000 AM CDT SAT APR 21 2018

NOTE: "FAIR" INDICATES FEW OR NO CLOUDS BELOW 12,000 FEET WITH NO
SIGNIFICANT WEATHER AND/OR OBSTRUCTIONS TO VISIBILITY.

NOTE: STATIONS NOT REPORTING VARIABLES SUCH AS SKY/WEATHER OR
PRESSURE ARE PROVIDED BY RAWS AND APRS NETWORKS AND ARE NOT UNDER
NATIONAL WEATHER SERVICE QUALITY CONTROL.

...OBSERVATIONS IN AND NEAR THE EASTERN PANHANDLE OF NEBRASKA...

CITY           SKY/WX    TMP DP  RH WIND       PRES   REMARKS
PINE RIDGE     CLOUDY    40  37  89 S7        30.23S
GORDON         RAIN      38  36  92 SE6       30.23S WCI  33
CHADRON        CLOUDY    40  35  83 S7        30.23S
ALLIANCE       LGT SNOW  33  33 100 SE5       30.21S FOG     WCI  29
SIDNEY         LGT SNOW  34  33  96 E7        30.20S FOG     WCI  28
CRESCENT LAKE    N/A     35  34  96 E3          N/A
$$

...OBSERVATIONS IN NORTHERN NEBRASKA AND FAR SOUTHERN SOUTH DAKOTA...

CITY           SKY/WX    TMP DP  RH WIND       PRES   REMARKS
WINNER         LGT RAIN  41  37  86 SE5       30.32S FOG
VALENTINE      CLOUDY    41  38  89 SE6       30.29S
AINSWORTH      DRIZZLE   39  38  99 CALM      30.29F
O`NEILL        CLOUDY    44  38  80 NE7       30.31F
THEDFORD       LGT RAIN  38  37  92 SE8       30.28S WCI  33
BROKEN BOW     LGT RAIN  41  38  89 N13       30.24F
ORD            CLOUDY    43  38  82 NE5       30.25S
ALBION         CLOUDY    46  34  63 E8        30.27F
VALENTINE NWR    N/A     37  36  96 SE6         N/A  WCI  32
HALSEY           N/A     38  38 100 E3          N/A
BUTTE            N/A     38  36  92 E6          N/A  WCI  33
CHAMBERS         N/A     43  40  89 N3          N/A
EWING            N/A     43  39  85 NE5         N/A
$$

...OBSERVATIONS IN SOUTHWEST NEBRASKA AND FAR NORTHEAST COLORADO...

CITY           SKY/WX    TMP DP  RH WIND       PRES   REMARKS
WRAY           LGT RAIN  36  36 100 E6        30.20S WCI  31
HOLYOKE        DRIZZLE   39  36  87 E8        30.21R WCI  34
IMPERIAL       CLOUDY    39  38  96 E10       30.21S WCI  32
OGALLALA       LGT RAIN  38  37  95 E7        30.23S WCI  32
NORTH PLATTE   LGT RAIN  41  39  93 E9        30.24F
MCCOOK         CLOUDY    41  40  96 NE10      30.21F FOG
LEXINGTON      DRIZZLE   42  39  92 NE6       30.24F
STAPLETON        N/A     37  36  96 CALM        N/A
GOTHENBURG       N/A     39  37  91 CALM        N/A
CALLAWAY         N/A     39  38  97 E7          N/A  WCI  34
$$

...OBSERVATIONS IN CENTRAL LINCOLN COUNTY AREA...

CITY           SKY/WX    TMP DP  RH WIND       PRES   REMARKS
N.P. AIRPORT   LGT RAIN  41  39  93 E9        30.24F
N.P. DOWNTOWN    N/A     39  37  94 E3          N/A
N.P. SOUTHEAST   N/A     38  36  93 E3          N/A
N.P. HILLCREST   N/A     39  38  95 E9          N/A  WCI  33
$$

...OBSERVATIONS ACROSS THE ROCKIES AND WESTERN HIGH PLAINS...

CITY           SKY/WX    TMP DP  RH WIND       PRES   REMARKS
RAPID CITY     CLOUDY    40  38  93 S10       30.22F WCI  33
SCOTTSBLUFF    LGT SNOW  35 N/A N/A E5        30.22S WCI  31
CHEYENNE       LGT SNOW  31  31 100 CALM      30.16S VSB 3/4
DENVER         LGT SNOW  33  31  92 W8        30.16S VSB 3/4 WCI  26
BERTHOUD PASS  CLOUDY    16   5  62 NW15G24   30.14R WCI   1
MONARCH PASS   CLOUDY    19  18  93 W10       30.25R WCI   8
ASPEN          CLOUDY    33  30  88 CALM      30.16R
STEAMBOAT      CLOUDY    32  32  99 CALM      30.18R
LARAMIE        MIX PCPN  28  28 100 SW3       30.15R FOG
CASPER         MOSUNNY   40  38  93 S3        30.15S
$$

...OBSERVATIONS ACROSS THE NORTHERN PLAINS...

CITY           SKY/WX    TMP DP  RH WIND       PRES   REMARKS
BISMARCK       SUNNY     50  40  68 SE13      30.26F
FARGO          CLOUDY    44  36  73 S6        30.37F
PIERRE         CLOUDY    44  42  93 SE7       30.30F
SIOUX FALLS    CLOUDY    43  33  68 CALM      30.36F
$$

...OBSERVATIONS ACROSS THE CENTRAL AND SOUTHERN PLAINS...

CITY           SKY/WX    TMP DP  RH WIND       PRES   REMARKS
OMAHA          CLOUDY    50  29  44 CALM      30.29F
GRAND ISLAND   CLOUDY    43  38  82 E6        30.26S
KANSAS CITY    CLOUDY    50  28  42 E8        30.23F
WICHITA        LGT RAIN  47  45  93 E12       30.15R
DODGE CITY     FOG       44  42  93 NE10      30.11S VSB 1
OKLAHOMA CITY  LGT RAIN  47  46  97 E20G25    30.00F
DALLAS         CLOUDY    61  50  67 S20G28    29.95F
AMARILLO       FOG       46  45  96 N12       30.02R VSB 1
$$




USA.gov is the U.S. government's official web portal to all federal, state and local government web resources and services.